Weather History for Lumberton, NC

Change the Weather History Date:

Monday, July 28, 2014

  Actual Average Record
Temperature  
Mean Temperature 83 °F 81 °F  
Max Temperature 93 °F 90 °F 99 °F (2005)
Min Temperature 73 °F 72 °F 66 °F (2000)
Degree Days  
Heating Degree Days 0 0  
Month to date heating degree days 0 0  
Since 1 June heating degree days 0 0  
Since 1 July heating degree days 0 0  
Cooling Degree Days 18 16  
Month to date cooling degree days 443 448  
Year to date cooling degree days 1189 1086  
Since 1 June cooling degree days 901 836  
Growing Degree Days 33 (Base 50)    
Moisture  
Dew Point 72 °F    
Average Humidity 70    
Maximum Humidity 87    
Minimum Humidity 52    
Precipitation  
Precipitation 0.57 in 0.19 in 0.57 in (2014)
Month to date precipitation 4.44 4.89  
Year to date precipitation 29.27 24.30  
Sea Level Pressure  
Sea Level Pressure 29.79 in    
Wind  
Wind Speed 7 mph (SW)    
Max Wind Speed 24 mph    
Max Gust Speed 33 mph    
Visibility 8 miles    
Events Rain , Thunderstorm    
T = Trace of Precipitation, MM = Missing Value Source: NWS Daily Summary

Daily Weather History Graph

Daily Weather History Graph

Search for Another Location

Airport:

Trip Planner

Search our weather history database for the weather conditions in past years. The results will help you decide how hot, cold, wet, or windy it might be!

Date:

Astronomy

Jul. 28, 2014 Rise Set
Actual Time 6:23 AM EDT 8:21 PM EDT
Civil Twilight 5:55 AM EDT 8:49 PM EDT
Nautical Twilight 5:21 AM EDT 9:23 PM EDT
Astronomical Twilight 4:45 AM EDT 9:59 PM EDT
Moon 7:57 AM EDT (7/28) 9:09 PM EDT (7/28)
Length of Visible Light 14h 53m
Length of Day
13h 58m
Waxing Crescent, 3% of the Moon is Illuminated
Jul 28
Waxing Crescent
Aug 3
First Quarter
Aug 10
Full
Aug 17
Last Quarter
Aug 25
New

Hourly Weather History & Observations

Time (EDT) Temp. Heat Index Dew Point Humidity Pressure Visibility Wind Dir Wind Speed Gust Speed Precip Events Conditions
12:54 AM 84.9 °F 91.4 °F 73.0 °F 67% 29.81 in 10.0 mi SW 13.8 mph - N/A   Clear
1:54 AM 82.9 °F 88.8 °F 73.0 °F 72% 29.79 in 10.0 mi SW 10.4 mph - N/A   Partly Cloudy
2:54 AM 84.0 °F 89.6 °F 72.0 °F 67% 29.77 in 10.0 mi WSW 16.1 mph 24.2 mph N/A   Clear
4:54 AM 82.0 °F 86.7 °F 72.0 °F 71% 29.81 in 9.0 mi WNW 11.5 mph - N/A   Partly Cloudy
5:54 AM 80.1 °F 83.2 °F 70.0 °F 71% 29.79 in 10.0 mi West 6.9 mph - N/A   Clear
6:54 AM 79.0 °F - 70.0 °F 74% 29.78 in 10.0 mi SW 5.8 mph - N/A   Clear
7:54 AM 78.1 °F - 71.1 °F 79% 29.80 in 10.0 mi WSW 4.6 mph - N/A   Clear
8:54 AM 80.1 °F 83.8 °F 72.0 °F 76% 29.81 in 10.0 mi WSW 6.9 mph - N/A   Clear
9:54 AM 84.0 °F 88.4 °F 70.0 °F 63% 29.82 in 10.0 mi West 9.2 mph - N/A   Clear
10:54 AM 86.0 °F 90.7 °F 70.0 °F 59% 29.82 in 10.0 mi West 10.4 mph - N/A   Clear
11:54 AM 88.0 °F 94.7 °F 72.0 °F 59% 29.81 in 10.0 mi West 9.2 mph - N/A   Clear
12:54 PM 89.1 °F 95.0 °F 71.1 °F 55% 29.80 in 10.0 mi WSW 8.1 mph - N/A   Clear
1:54 PM 90.0 °F 96.4 °F 71.1 °F 54% 29.79 in 10.0 mi WSW 10.4 mph - N/A   Clear
2:54 PM 91.9 °F 99.5 °F 72.0 °F 52% 29.77 in 10.0 mi WSW 12.7 mph - N/A   Scattered Clouds
3:12 PM 91.9 °F 100.7 °F 73.0 °F 54% 29.77 in 10.0 mi SW 10.4 mph - N/A Thunderstorm Mostly Cloudy
3:23 PM 91.0 °F 97.6 °F 71.1 °F 52% 29.77 in 10.0 mi SW 11.5 mph - N/A Thunderstorm Thunderstorm
3:38 PM 88.0 °F 95.6 °F 73.0 °F 61% 29.76 in 8.0 mi SSW 5.8 mph - 0.00 in Rain , Thunderstorm Light Rain
3:47 PM 84.0 °F 91.9 °F 75.0 °F 74% 29.79 in 1.5 mi NW 11.5 mph 23.0 mph 0.14 in Rain , Thunderstorm Heavy Rain
3:49 PM 82.4 °F 88.2 °F 73.4 °F 74% 29.80 in 0.8 mi WNW 24.2 mph 32.2 mph 0.25 in Rain , Thunderstorm Heavy Rain
4:01 PM 75.9 °F - 69.1 °F 79% 29.76 in 0.8 mi Variable 3.5 mph - 0.09 in Rain , Thunderstorm Heavy Thunderstorms and Rain
4:07 PM 77.0 °F - 71.1 °F 82% 29.75 in 1.0 mi SSE 11.5 mph - 0.13 in Rain , Thunderstorm Heavy Thunderstorms and Rain
4:11 PM 75.9 °F - 72.0 °F 87% 29.76 in 1.8 mi SSE 9.2 mph - 0.13 in Rain , Thunderstorm Light Thunderstorms and Rain
4:14 PM 77.0 °F - 73.0 °F 88% 29.76 in 4.0 mi SE 5.8 mph - 0.13 in Rain , Thunderstorm Light Thunderstorms and Rain
4:22 PM 79.0 °F - 73.0 °F 82% 29.78 in 10.0 mi South 9.2 mph - 0.13 in Thunderstorm Thunderstorm
4:30 PM 79.0 °F - 72.0 °F 79% 29.78 in 10.0 mi SSE 5.8 mph - 0.13 in Thunderstorm Scattered Clouds
4:54 PM 82.0 °F 87.9 °F 73.9 °F 76% 29.75 in 10.0 mi South 3.5 mph - 0.13 in Thunderstorm Scattered Clouds
5:06 PM 82.9 °F 88.8 °F 73.0 °F 72% 29.75 in 10.0 mi ESE 3.5 mph - N/A   Partly Cloudy
5:54 PM 84.9 °F 93.3 °F 75.0 °F 72% 29.75 in 10.0 mi Calm Calm - N/A   Partly Cloudy
6:54 PM 82.9 °F 90.2 °F 75.0 °F 77% 29.77 in 10.0 mi SSE 4.6 mph - N/A   Mostly Cloudy
7:54 PM 82.0 °F 88.6 °F 75.0 °F 79% 29.78 in 10.0 mi Calm Calm - N/A   Overcast
8:54 PM 80.1 °F 85.4 °F 75.9 °F 87% 29.81 in 10.0 mi SE 3.5 mph - N/A   Overcast
9:54 PM 81.0 °F 84.1 °F 69.1 °F 67% 29.83 in 10.0 mi North 6.9 mph - N/A   Mostly Cloudy
10:54 PM 79.0 °F - 63.0 °F 58% 29.85 in 10.0 mi NNW 5.8 mph - N/A   Partly Cloudy
11:54 PM 73.0 °F - 69.1 °F 87% 29.84 in 10.0 mi NW 4.6 mph - N/A   Partly Cloudy